Time,TemperatureF,DewpointF,PressureIn,WindDirection,WindDirectionDegrees,WindSpeedMPH,WindSpeedGustMPH,Humidity,HourlyPrecipIn,Conditions,Clouds,dailyrainin,SoftwareType,DateUTC
2013-02-10 00:00:00,36.6,15.6,29.91,WNW,287,0.0,0.0,42,0.00,,,0.00,Wunderground v.1.15,2013-02-10 07:00:00,
2013-02-10 00:05:00,36.5,15.6,29.90,WNW,290,0.0,0.0,42,0.00,,,0.00,Wunderground v.1.15,2013-02-10 07:05:00,
2013-02-10 00:15:00,36.3,15.4,29.91,West,279,0.0,0.0,42,0.00,,,0.00,Wunderground v.1.15,2013-02-10 07:15:00,
2013-02-10 00:25:00,36.2,15.3,29.92,West,273,0.0,0.0,42,0.00,,,0.00,Wunderground v.1.15,2013-02-10 07:25:00,
2013-02-10 00:30:00,36.1,15.2,29.92,NW,323,0.0,0.0,42,0.00,,,0.00,Wunderground v.1.15,2013-02-10 07:30:00,
2013-02-10 00:35:00,36.0,15.1,29.92,West,275,0.0,0.0,42,0.00,,,0.00,Wunderground v.1.15,2013-02-10 07:35:00,
2013-02-10 00:45:00,35.7,15.4,29.92,SSE,157,0.0,0.0,43,0.00,,,0.00,Wunderground v.1.15,2013-02-10 07:45:00,
2013-02-10 00:50:00,35.4,15.1,29.92,SSE,157,0.0,0.0,43,0.00,,,0.00,Wunderground v.1.15,2013-02-10 07:50:00,
2013-02-10 01:00:00,35.0,14.7,29.92,SSE,157,0.0,0.0,43,0.00,,,0.00,Wunderground v.1.15,2013-02-10 08:00:00,
2013-02-10 01:05:00,34.6,14.4,29.95,SSE,157,0.0,0.0,43,0.00,,,0.00,Wunderground v.1.15,2013-02-10 08:05:00,
2013-02-10 01:15:00,34.1,14.4,29.95,SSE,157,0.0,0.0,44,0.00,,,0.00,Wunderground v.1.15,2013-02-10 08:15:00,
2013-02-10 01:20:00,33.8,14.2,29.95,SSE,157,0.0,0.0,44,0.00,,,0.00,Wunderground v.1.15,2013-02-10 08:20:00,
2013-02-10 01:25:00,33.6,14.5,29.95,SSE,157,0.0,0.0,45,0.00,,,0.00,Wunderground v.1.15,2013-02-10 08:25:00,
2013-02-10 01:35:00,33.2,14.1,29.96,SSE,157,0.0,0.0,45,0.00,,,0.00,Wunderground v.1.15,2013-02-10 08:35:00,
2013-02-10 01:40:00,33.0,13.9,29.96,SSE,157,0.0,0.0,45,0.00,,,0.00,Wunderground v.1.15,2013-02-10 08:40:00,
2013-02-10 01:50:00,32.4,13.9,29.96,SSE,157,0.0,0.0,46,0.00,,,0.00,Wunderground v.1.15,2013-02-10 08:50:00,
2013-02-10 01:55:00,32.2,13.7,29.96,SSE,157,0.0,0.0,46,0.00,,,0.00,Wunderground v.1.15,2013-02-10 08:55:00,
2013-02-10 02:00:00,32.0,14.0,29.96,SSE,157,0.0,0.0,47,0.00,,,0.00,Wunderground v.1.15,2013-02-10 09:00:00,
2013-02-10 02:05:00,31.8,13.8,29.97,SSE,157,0.0,0.0,47,0.00,,,0.00,Wunderground v.1.15,2013-02-10 09:05:00,
2013-02-10 02:15:00,31.6,14.1,29.98,SSE,157,0.0,0.0,48,0.00,,,0.00,Wunderground v.1.15,2013-02-10 09:15:00,
2013-02-10 02:20:00,31.5,13.6,29.97,SSE,157,0.0,0.0,47,0.00,,,0.00,Wunderground v.1.15,2013-02-10 09:20:00,
2013-02-10 02:25:00,31.3,13.9,29.98,SSE,157,0.0,0.0,48,0.00,,,0.00,Wunderground v.1.15,2013-02-10 09:25:00,
2013-02-10 02:30:00,31.4,14.9,29.98,ESE,105,0.0,0.0,50,0.00,,,0.00,Wunderground v.1.15,2013-02-10 09:30:00,
2013-02-10 02:40:00,31.7,15.6,29.97,WSW,257,0.0,0.0,51,0.00,,,0.00,Wunderground v.1.15,2013-02-10 09:40:00,
2013-02-10 02:50:00,32.0,15.9,29.97,SW,236,0.0,0.0,51,0.00,,,0.00,Wunderground v.1.15,2013-02-10 09:50:00,
2013-02-10 02:55:00,32.1,16.0,29.97,SW,236,0.0,0.0,51,0.00,,,0.00,Wunderground v.1.15,2013-02-10 09:55:00,
2013-02-10 03:00:00,32.3,16.2,29.97,SW,236,0.0,0.0,51,0.00,,,0.00,Wunderground v.1.15,2013-02-10 10:00:00,
2013-02-10 03:05:00,32.3,16.2,29.97,WSW,250,0.0,0.0,51,0.00,,,0.00,Wunderground v.1.15,2013-02-10 10:05:00,
2013-02-10 03:15:00,32.3,16.2,29.98,WSW,250,0.0,0.0,51,0.00,,,0.00,Wunderground v.1.15,2013-02-10 10:15:00,
2013-02-10 03:20:00,32.3,16.2,29.98,WSW,249,0.0,0.0,51,0.00,,,0.00,Wunderground v.1.15,2013-02-10 10:20:00,
2013-02-10 03:25:00,32.2,16.1,29.98,WSW,250,0.0,0.0,51,0.00,,,0.00,Wunderground v.1.15,2013-02-10 10:25:00,
2013-02-10 03:30:00,32.0,15.9,29.98,WSW,249,0.0,0.0,51,0.00,,,0.00,Wunderground v.1.15,2013-02-10 10:30:00,
2013-02-10 03:35:00,31.9,15.8,29.98,WSW,249,0.0,0.0,51,0.00,,,0.00,Wunderground v.1.15,2013-02-10 10:35:00,
2013-02-10 03:45:00,31.8,16.2,29.98,WSW,249,0.0,0.0,52,0.00,,,0.00,Wunderground v.1.15,2013-02-10 10:45:00,
2013-02-10 03:55:00,31.7,16.5,29.97,WSW,249,0.0,0.0,53,0.00,,,0.00,Wunderground v.1.15,2013-02-10 10:55:00,
2013-02-10 04:00:00,31.6,16.4,29.97,WSW,249,0.0,0.0,53,0.00,,,0.00,Wunderground v.1.15,2013-02-10 11:00:00,
2013-02-10 04:05:00,31.5,15.9,29.98,WSW,249,0.0,0.0,52,0.00,,,0.00,Wunderground v.1.15,2013-02-10 11:05:00,
2013-02-10 04:15:00,31.3,15.7,29.99,WSW,249,0.0,0.0,52,0.00,,,0.00,Wunderground v.1.15,2013-02-10 11:15:00,
2013-02-10 04:25:00,30.9,15.8,29.98,WSW,249,0.0,0.0,53,0.00,,,0.00,Wunderground v.1.15,2013-02-10 11:25:00,
2013-02-10 04:30:00,30.7,15.6,29.98,SW,221,0.0,0.0,53,0.00,,,0.00,Wunderground v.1.15,2013-02-10 11:30:00,
2013-02-10 04:35:00,30.5,15.4,29.98,SW,221,0.0,0.0,53,0.00,,,0.00,Wunderground v.1.15,2013-02-10 11:35:00,
2013-02-10 04:40:00,30.3,15.2,29.98,SW,220,0.0,0.0,53,0.00,,,0.00,Wunderground v.1.15,2013-02-10 11:40:00,
2013-02-10 04:45:00,30.1,15.4,29.98,SSW,209,0.0,0.0,54,0.00,,,0.00,Wunderground v.1.15,2013-02-10 11:45:00,
2013-02-10 04:55:00,29.6,15.0,29.98,SSW,203,0.0,0.0,54,0.00,,,0.00,Wunderground v.1.15,2013-02-10 11:55:00,
2013-02-10 05:05:00,28.9,14.7,30.00,ESE,103,0.0,0.0,55,0.00,,,0.00,Wunderground v.1.15,2013-02-10 12:05:00,
2013-02-10 05:15:00,28.9,15.2,30.00,SE,132,0.0,2.0,56,0.00,,,0.00,Wunderground v.1.15,2013-02-10 12:15:00,
2013-02-10 05:20:00,29.2,15.8,30.00,ESE,108,1.0,1.0,57,0.00,,,0.00,Wunderground v.1.15,2013-02-10 12:20:00,
2013-02-10 05:30:00,29.9,16.1,30.00,ESE,116,0.0,0.0,56,0.00,,,0.00,Wunderground v.1.15,2013-02-10 12:30:00,
2013-02-10 05:35:00,30.0,16.2,30.00,ESE,115,0.0,0.0,56,0.00,,,0.00,Wunderground v.1.15,2013-02-10 12:35:00,
2013-02-10 05:40:00,30.1,16.3,30.00,ESE,116,0.0,0.0,56,0.00,,,0.00,Wunderground v.1.15,2013-02-10 12:40:00,
2013-02-10 05:50:00,30.4,16.6,30.00,ESE,115,0.0,0.0,56,0.00,,,0.00,Wunderground v.1.15,2013-02-10 12:50:00,
2013-02-10 05:55:00,30.7,16.4,29.99,ESE,111,0.0,3.0,55,0.00,,,0.00,Wunderground v.1.15,2013-02-10 12:55:00,
2013-02-10 06:00:00,30.9,16.6,29.99,ESE,111,0.0,0.0,55,0.00,,,0.00,Wunderground v.1.15,2013-02-10 13:00:00,
2013-02-10 06:05:00,31.0,16.7,30.00,SE,127,0.0,0.0,55,0.00,,,0.00,Wunderground v.1.15,2013-02-10 13:05:00,
2013-02-10 06:15:00,30.8,16.5,30.01,SSE,155,0.0,2.0,55,0.00,,,0.00,Wunderground v.1.15,2013-02-10 13:15:00,
2013-02-10 06:20:00,30.7,16.4,30.01,SE,132,0.0,0.0,55,0.00,,,0.00,Wunderground v.1.15,2013-02-10 13:20:00,
2013-02-10 06:25:00,30.6,16.3,30.01,SE,140,0.0,0.0,55,0.00,,,0.00,Wunderground v.1.15,2013-02-10 13:25:00,
2013-02-10 06:35:00,30.5,16.7,30.01,SSE,154,1.0,1.0,56,0.00,,,0.00,Wunderground v.1.15,2013-02-10 13:35:00,
2013-02-10 06:45:00,30.4,16.6,30.02,ESE,121,0.0,0.0,56,0.00,,,0.00,Wunderground v.1.15,2013-02-10 13:45:00,
2013-02-10 06:50:00,30.4,16.6,30.03,SE,136,0.0,0.0,56,0.00,,,0.00,Wunderground v.1.15,2013-02-10 13:50:00,
2013-02-10 06:55:00,30.3,16.5,30.03,SE,140,0.0,0.0,56,0.00,,,0.00,Wunderground v.1.15,2013-02-10 13:55:00,
2013-02-10 07:00:00,30.3,16.5,30.02,SE,133,0.0,1.0,56,0.00,,,0.00,Wunderground v.1.15,2013-02-10 14:00:00,
2013-02-10 07:05:00,30.4,16.6,30.04,ESE,121,0.0,2.0,56,0.00,,,0.00,Wunderground v.1.15,2013-02-10 14:05:00,
2013-02-10 07:15:00,30.6,16.7,30.03,ESE,117,1.0,3.0,56,0.00,,,0.00,Wunderground v.1.15,2013-02-10 14:15:00,
2013-02-10 07:20:00,30.6,16.7,30.03,ESE,117,0.0,0.0,56,0.00,,,0.00,Wunderground v.1.15,2013-02-10 14:20:00,
2013-02-10 07:25:00,30.5,16.7,30.03,ESE,119,0.0,0.0,56,0.00,,,0.00,Wunderground v.1.15,2013-02-10 14:25:00,
2013-02-10 07:35:00,30.6,16.7,30.04,SE,132,0.0,0.0,56,0.00,,,0.00,Wunderground v.1.15,2013-02-10 14:35:00,
2013-02-10 07:40:00,30.8,16.5,30.04,SE,134,0.0,0.0,55,0.00,,,0.00,Wunderground v.1.15,2013-02-10 14:40:00,
2013-02-10 07:50:00,31.2,16.9,30.04,SE,132,0.0,0.0,55,0.00,,,0.00,Wunderground v.1.15,2013-02-10 14:50:00,
2013-02-10 07:55:00,31.5,17.2,30.04,SE,132,0.0,0.0,55,0.00,,,0.00,Wunderground v.1.15,2013-02-10 14:55:00,
2013-02-10 08:00:00,31.9,17.1,30.04,SE,128,0.0,0.0,54,0.00,,,0.00,Wunderground v.1.15,2013-02-10 15:00:00,
2013-02-10 08:05:00,32.5,17.7,30.04,SE,133,0.0,0.0,54,0.00,,,0.00,Wunderground v.1.15,2013-02-10 15:05:00,
2013-02-10 08:15:00,34.2,17.9,30.03,SE,136,0.0,0.0,51,0.00,,,0.00,Wunderground v.1.15,2013-02-10 15:15:00,
2013-02-10 08:20:00,34.8,18.0,30.04,SE,128,0.0,0.0,50,0.00,,,0.00,Wunderground v.1.15,2013-02-10 15:20:00,
2013-02-10 08:30:00,36.1,18.3,30.03,East,99,0.0,0.0,48,0.00,,,0.00,Wunderground v.1.15,2013-02-10 15:30:00,
2013-02-10 08:35:00,36.8,18.4,30.03,East,95,0.0,0.0,47,0.00,,,0.00,Wunderground v.1.15,2013-02-10 15:35:00,
2013-02-10 08:40:00,37.3,18.4,30.03,East,95,0.0,0.0,46,0.00,,,0.00,Wunderground v.1.15,2013-02-10 15:40:00,
2013-02-10 08:45:00,37.7,18.2,30.02,ESE,107,0.0,0.0,45,0.00,,,0.00,Wunderground v.1.15,2013-02-10 15:45:00,
2013-02-10 08:50:00,38.1,18.1,30.03,ESE,123,0.0,0.0,44,0.00,,,0.00,Wunderground v.1.15,2013-02-10 15:50:00,
2013-02-10 08:55:00,38.4,17.8,30.03,SE,128,1.0,1.0,43,0.00,,,0.00,Wunderground v.1.15,2013-02-10 15:55:00,
2013-02-10 09:00:00,38.8,18.2,30.03,ESE,122,1.0,1.0,43,0.00,,,0.00,Wunderground v.1.15,2013-02-10 16:00:00,
2013-02-10 09:05:00,39.1,17.9,30.03,East,88,0.0,1.0,42,0.00,,,0.00,Wunderground v.1.15,2013-02-10 16:05:00,
2013-02-10 09:15:00,39.9,18.1,30.02,ESE,118,0.0,0.0,41,0.00,,,0.00,Wunderground v.1.15,2013-02-10 16:15:00,
2013-02-10 09:20:00,40.4,18.5,30.02,ESE,114,0.0,0.0,41,0.00,,,0.00,Wunderground v.1.15,2013-02-10 16:20:00,
2013-02-10 09:25:00,40.9,18.4,30.02,ESE,107,0.0,0.0,40,0.00,,,0.00,Wunderground v.1.15,2013-02-10 16:25:00,
2013-02-10 09:35:00,41.1,18.0,30.02,SE,127,0.0,1.0,39,0.00,,,0.00,Wunderground v.1.15,2013-02-10 16:35:00,
2013-02-10 09:40:00,41.3,18.2,30.02,West,266,0.0,0.0,39,0.00,,,0.00,Wunderground v.1.15,2013-02-10 16:40:00,
2013-02-10 09:45:00,41.5,18.4,30.01,WSW,254,0.0,0.0,39,0.00,,,0.00,Wunderground v.1.15,2013-02-10 16:45:00,
2013-02-10 09:50:00,41.8,18.6,30.01,West,265,0.0,0.0,39,0.00,,,0.00,Wunderground v.1.15,2013-02-10 16:50:00,
2013-02-10 09:55:00,42.0,18.2,30.01,SW,232,0.0,0.0,38,0.00,,,0.00,Wunderground v.1.15,2013-02-10 16:55:00,
2013-02-10 10:00:00,42.0,17.6,30.00,WSW,256,1.0,1.0,37,0.00,,,0.00,Wunderground v.1.15,2013-02-10 17:00:00,
2013-02-10 10:05:00,42.2,17.8,30.01,WSW,250,1.0,1.0,37,0.00,,,0.00,Wunderground v.1.15,2013-02-10 17:05:00,
2013-02-10 10:15:00,42.7,17.6,30.01,West,269,1.0,5.0,36,0.00,,,0.00,Wunderground v.1.15,2013-02-10 17:15:00,
2013-02-10 10:20:00,43.0,17.8,30.01,WSW,252,1.0,1.0,36,0.00,,,0.00,Wunderground v.1.15,2013-02-10 17:20:00,
2013-02-10 10:25:00,43.1,17.9,30.01,WSW,244,1.0,1.0,36,0.00,,,0.00,Wunderground v.1.15,2013-02-10 17:25:00,
2013-02-10 10:30:00,43.6,18.4,30.01,SE,130,0.0,2.0,36,0.00,,,0.00,Wunderground v.1.15,2013-02-10 17:30:00,
2013-02-10 10:35:00,44.2,18.2,30.01,SE,128,0.0,2.0,35,0.00,,,0.00,Wunderground v.1.15,2013-02-10 17:35:00,
2013-02-10 10:40:00,44.6,18.6,30.00,SE,139,0.0,0.0,35,0.00,,,0.00,Wunderground v.1.15,2013-02-10 17:40:00,
2013-02-10 10:45:00,45.0,18.3,30.00,NE,55,0.0,0.0,34,0.00,,,0.00,Wunderground v.1.15,2013-02-10 17:45:00,
2013-02-10 10:50:00,45.9,19.1,29.99,North,355,0.0,0.0,34,0.00,,,0.00,Wunderground v.1.15,2013-02-10 17:50:00,
2013-02-10 10:55:00,46.8,19.2,29.98,NE,44,0.0,0.0,33,0.00,,,0.00,Wunderground v.1.15,2013-02-10 17:55:00,
2013-02-10 11:00:00,47.4,19.0,29.98,NW,323,0.0,0.0,32,0.00,,,0.00,Wunderground v.1.15,2013-02-10 18:00:00,
2013-02-10 11:05:00,48.1,18.8,29.98,ESE,106,0.0,1.0,31,0.00,,,0.00,Wunderground v.1.15,2013-02-10 18:05:00,
2013-02-10 11:15:00,48.1,18.8,29.98,SW,226,0.0,0.0,31,0.00,,,0.00,Wunderground v.1.15,2013-02-10 18:15:00,
2013-02-10 11:25:00,48.4,18.3,29.97,WNW,288,0.0,0.0,30,0.00,,,0.00,Wunderground v.1.15,2013-02-10 18:25:00,
2013-02-10 11:30:00,48.7,18.6,29.96,SW,221,0.0,0.0,30,0.00,,,0.00,Wunderground v.1.15,2013-02-10 18:30:00,
2013-02-10 11:35:00,49.0,18.1,29.96,West,265,0.0,3.0,29,0.00,,,0.00,Wunderground v.1.15,2013-02-10 18:35:00,
2013-02-10 11:40:00,49.3,18.3,29.96,WNW,286,1.0,2.0,29,0.00,,,0.00,Wunderground v.1.15,2013-02-10 18:40:00,
2013-02-10 11:45:00,49.5,17.7,29.95,South,179,1.0,2.0,28,0.00,,,0.00,Wunderground v.1.15,2013-02-10 18:45:00,
2013-02-10 11:50:00,49.7,17.9,29.95,West,262,0.0,0.0,28,0.00,,,0.00,Wunderground v.1.15,2013-02-10 18:50:00,
2013-02-10 11:55:00,49.9,18.0,29.95,SE,129,0.0,0.0,28,0.00,,,0.00,Wunderground v.1.15,2013-02-10 18:55:00,
2013-02-10 12:00:00,50.3,18.4,29.95,SE,134,0.0,0.0,28,0.00,,,0.00,Wunderground v.1.15,2013-02-10 19:00:00,
2013-02-10 12:05:00,51.2,18.3,29.94,SE,137,0.0,0.0,27,0.00,,,0.00,Wunderground v.1.15,2013-02-10 19:05:00,
2013-02-10 12:15:00,51.4,17.6,29.93,ENE,58,1.0,1.0,26,0.00,,,0.00,Wunderground v.1.15,2013-02-10 19:15:00,
2013-02-10 12:20:00,51.5,17.7,29.93,East,88,1.0,1.0,26,0.00,,,0.00,Wunderground v.1.15,2013-02-10 19:20:00,
2013-02-10 12:25:00,51.6,17.8,29.93,West,264,1.0,1.0,26,0.00,,,0.00,Wunderground v.1.15,2013-02-10 19:25:00,
2013-02-10 12:30:00,51.6,17.8,29.92,South,176,0.0,0.0,26,0.00,,,0.00,Wunderground v.1.15,2013-02-10 19:30:00,
2013-02-10 12:35:00,52.0,17.2,29.92,West,263,1.0,1.0,25,0.00,,,0.00,Wunderground v.1.15,2013-02-10 19:35:00,
2013-02-10 12:40:00,51.9,16.2,29.92,West,273,1.0,4.0,24,0.00,,,0.00,Wunderground v.1.15,2013-02-10 19:40:00,
2013-02-10 12:45:00,52.0,17.2,29.91,SE,136,1.0,4.0,25,0.00,,,0.00,Wunderground v.1.15,2013-02-10 19:45:00,
2013-02-10 12:55:00,52.2,16.4,29.91,ESE,107,0.0,1.0,24,0.00,,,0.00,Wunderground v.1.15,2013-02-10 19:55:00,
2013-02-10 13:00:00,52.3,16.5,29.91,East,101,1.0,1.0,24,0.00,,,0.00,Wunderground v.1.15,2013-02-10 20:00:00,
2013-02-10 13:05:00,52.5,16.7,29.91,WSW,257,1.0,3.0,24,0.00,,,0.00,Wunderground v.1.15,2013-02-10 20:05:00,
2013-02-10 13:15:00,52.5,16.7,29.91,West,263,1.0,3.0,24,0.00,,,0.00,Wunderground v.1.15,2013-02-10 20:15:00,
2013-02-10 13:20:00,52.6,16.8,29.90,West,266,1.0,1.0,24,0.00,,,0.00,Wunderground v.1.15,2013-02-10 20:20:00,
2013-02-10 13:25:00,52.8,16.9,29.91,West,264,0.0,1.0,24,0.00,,,0.00,Wunderground v.1.15,2013-02-10 20:25:00,
2013-02-10 13:30:00,53.3,17.4,29.90,NE,55,0.0,0.0,24,0.00,,,0.00,Wunderground v.1.15,2013-02-10 20:30:00,
2013-02-10 13:35:00,53.8,16.8,29.89,East,91,0.0,0.0,23,0.00,,,0.00,Wunderground v.1.15,2013-02-10 20:35:00,
2013-02-10 13:40:00,54.1,17.1,29.89,SE,146,0.0,0.0,23,0.00,,,0.00,Wunderground v.1.15,2013-02-10 20:40:00,
2013-02-10 13:45:00,54.2,17.1,29.89,NW,304,1.0,1.0,23,0.00,,,0.00,Wunderground v.1.15,2013-02-10 20:45:00,
2013-02-10 13:50:00,54.1,17.1,29.89,WSW,242,1.0,1.0,23,0.00,,,0.00,Wunderground v.1.15,2013-02-10 20:50:00,
2013-02-10 13:55:00,54.2,17.1,29.88,SSW,211,1.0,1.0,23,0.00,,,0.00,Wunderground v.1.15,2013-02-10 20:55:00,
2013-02-10 14:00:00,54.3,17.2,29.88,ESE,118,0.0,0.0,23,0.00,,,0.00,Wunderground v.1.15,2013-02-10 21:00:00,
2013-02-10 14:10:00,54.4,17.3,29.88,East,94,0.0,0.0,23,0.00,,,0.00,Wunderground v.1.15,2013-02-10 21:10:00,
2013-02-10 14:15:00,54.4,17.3,29.88,West,260,1.0,1.0,23,0.00,,,0.00,Wunderground v.1.15,2013-02-10 21:15:00,
2013-02-10 14:20:00,54.4,16.3,29.88,ESE,105,1.0,1.0,22,0.00,,,0.00,Wunderground v.1.15,2013-02-10 21:20:00,
2013-02-10 14:25:00,54.2,16.1,29.88,East,86,1.0,1.0,22,0.00,,,0.00,Wunderground v.1.15,2013-02-10 21:25:00,
2013-02-10 14:30:00,54.2,16.1,29.88,WNW,299,1.0,1.0,22,0.00,,,0.00,Wunderground v.1.15,2013-02-10 21:30:00,
2013-02-10 14:35:00,54.5,16.4,29.88,SW,235,1.0,1.0,22,0.00,,,0.00,Wunderground v.1.15,2013-02-10 21:35:00,
2013-02-10 14:40:00,54.8,16.6,29.88,West,259,1.0,1.0,22,0.00,,,0.00,Wunderground v.1.15,2013-02-10 21:40:00,
2013-02-10 14:50:00,54.2,16.1,29.88,South,180,1.0,1.0,22,0.00,,,0.00,Wunderground v.1.15,2013-02-10 21:50:00,
2013-02-10 14:55:00,54.4,16.3,29.88,SE,146,0.0,1.0,22,0.00,,,0.00,Wunderground v.1.15,2013-02-10 21:55:00,
2013-02-10 15:00:00,54.8,16.6,29.88,WSW,258,0.0,3.0,22,0.00,,,0.00,Wunderground v.1.15,2013-02-10 22:00:00,
2013-02-10 15:05:00,54.8,15.6,29.88,WSW,257,1.0,3.0,21,0.00,,,0.00,Wunderground v.1.15,2013-02-10 22:05:00,
2013-02-10 15:15:00,54.4,15.2,29.88,West,264,2.0,2.0,21,0.00,,,0.00,Wunderground v.1.15,2013-02-10 22:15:00,
2013-02-10 15:20:00,54.3,15.1,29.88,NW,319,2.0,2.0,21,0.00,,,0.00,Wunderground v.1.15,2013-02-10 22:20:00,
2013-02-10 15:25:00,54.4,15.2,29.88,WNW,284,0.0,2.0,21,0.00,,,0.00,Wunderground v.1.15,2013-02-10 22:25:00,
2013-02-10 15:35:00,54.3,14.0,29.88,WNW,300,0.0,0.0,20,0.00,,,0.00,Wunderground v.1.15,2013-02-10 22:35:00,
2013-02-10 15:45:00,54.4,15.2,29.88,West,263,0.0,4.0,21,0.00,,,0.00,Wunderground v.1.15,2013-02-10 22:45:00,
2013-02-10 15:50:00,54.4,15.2,29.88,West,263,0.0,0.0,21,0.00,,,0.00,Wunderground v.1.15,2013-02-10 22:50:00,
2013-02-10 15:55:00,54.3,15.1,29.88,SSE,157,0.0,0.0,21,0.00,,,0.00,Wunderground v.1.15,2013-02-10 22:55:00,
2013-02-10 16:00:00,54.3,14.0,29.88,WSW,254,0.0,0.0,20,0.00,,,0.00,Wunderground v.1.15,2013-02-10 23:00:00,
2013-02-10 16:05:00,54.0,13.8,29.90,West,273,1.0,1.0,20,0.00,,,0.00,Wunderground v.1.15,2013-02-10 23:05:00,
2013-02-10 16:15:00,53.4,14.4,29.90,WSW,248,0.0,1.0,21,0.00,,,0.00,Wunderground v.1.15,2013-02-10 23:15:00,
2013-02-10 16:20:00,53.3,14.3,29.90,WSW,248,0.0,0.0,21,0.00,,,0.00,Wunderground v.1.15,2013-02-10 23:20:00,
2013-02-10 16:30:00,52.8,13.9,29.90,WSW,242,1.0,1.0,21,0.00,,,0.00,Wunderground v.1.15,2013-02-10 23:30:00,
2013-02-10 16:35:00,52.7,13.8,29.91,West,275,0.0,1.0,21,0.00,,,0.00,Wunderground v.1.15,2013-02-10 23:35:00,
2013-02-10 16:40:00,52.5,13.6,29.91,SE,142,1.0,1.0,21,0.00,,,0.00,Wunderground v.1.15,2013-02-10 23:40:00,
2013-02-10 16:45:00,52.2,13.4,29.92,South,175,1.0,1.0,21,0.00,,,0.00,Wunderground v.1.15,2013-02-10 23:45:00,
2013-02-10 16:50:00,52.0,13.2,29.91,WSW,257,0.0,0.0,21,0.00,,,0.00,Wunderground v.1.15,2013-02-10 23:50:00,
2013-02-10 16:55:00,51.9,13.1,29.91,South,189,0.0,0.0,21,0.00,,,0.00,Wunderground v.1.15,2013-02-10 23:55:00,
2013-02-10 17:00:00,51.9,13.1,29.91,WSW,237,0.0,0.0,21,0.00,,,0.00,Wunderground v.1.15,2013-02-11 00:00:00,
2013-02-10 17:10:00,51.9,13.1,29.91,WSW,253,0.0,0.0,21,0.00,,,0.00,Wunderground v.1.15,2013-02-11 00:10:00,
2013-02-10 17:15:00,51.7,14.0,29.91,South,175,0.0,0.0,22,0.00,,,0.00,Wunderground v.1.15,2013-02-11 00:15:00,
2013-02-10 17:20:00,51.5,13.8,29.91,SW,232,0.0,0.0,22,0.00,,,0.00,Wunderground v.1.15,2013-02-11 00:20:00,
2013-02-10 17:30:00,50.6,14.1,29.91,WSW,257,0.0,0.0,23,0.00,,,0.00,Wunderground v.1.15,2013-02-11 00:30:00,
2013-02-10 17:35:00,50.2,13.8,29.92,WSW,256,0.0,0.0,23,0.00,,,0.00,Wunderground v.1.15,2013-02-11 00:35:00,
2013-02-10 17:40:00,49.8,13.4,29.92,WSW,257,0.0,0.0,23,0.00,,,0.00,Wunderground v.1.15,2013-02-11 00:40:00,
2013-02-10 17:45:00,49.6,13.3,29.92,WSW,256,0.0,0.0,23,0.00,,,0.00,Wunderground v.1.15,2013-02-11 00:45:00,
2013-02-10 17:50:00,49.2,13.9,29.92,WSW,257,0.0,0.0,24,0.00,,,0.00,Wunderground v.1.15,2013-02-11 00:50:00,
2013-02-10 18:00:00,48.7,13.5,29.92,WSW,257,0.0,0.0,24,0.00,,,0.00,Wunderground v.1.15,2013-02-11 01:00:00,
2013-02-10 18:05:00,48.4,13.2,29.93,WSW,256,0.0,0.0,24,0.00,,,0.00,Wunderground v.1.15,2013-02-11 01:05:00,
2013-02-10 18:15:00,48.0,13.8,29.93,WSW,256,0.0,0.0,25,0.00,,,0.00,Wunderground v.1.15,2013-02-11 01:15:00,
2013-02-10 18:20:00,47.7,13.5,29.94,WSW,257,0.0,0.0,25,0.00,,,0.00,Wunderground v.1.15,2013-02-11 01:20:00,
2013-02-10 18:25:00,47.5,13.4,29.94,WSW,256,0.0,0.0,25,0.00,,,0.00,Wunderground v.1.15,2013-02-11 01:25:00,
2013-02-10 18:35:00,47.0,12.9,29.95,WSW,257,0.0,0.0,25,0.00,,,0.00,Wunderground v.1.15,2013-02-11 01:35:00,
2013-02-10 18:40:00,46.7,13.6,29.95,WSW,256,0.0,0.0,26,0.00,,,0.00,Wunderground v.1.15,2013-02-11 01:40:00,
2013-02-10 18:45:00,46.5,13.4,29.95,WSW,257,0.0,0.0,26,0.00,,,0.00,Wunderground v.1.15,2013-02-11 01:45:00,
2013-02-10 18:55:00,46.0,13.0,29.96,WSW,257,0.0,0.0,26,0.00,,,0.00,Wunderground v.1.15,2013-02-11 01:55:00,
2013-02-10 19:00:00,45.8,12.8,29.96,WSW,257,0.0,0.0,26,0.00,,,0.00,Wunderground v.1.15,2013-02-11 02:00:00,
2013-02-10 19:05:00,45.5,13.4,29.95,WSW,256,0.0,0.0,27,0.00,,,0.00,Wunderground v.1.15,2013-02-11 02:05:00,
2013-02-10 19:15:00,45.0,13.0,29.97,WSW,256,0.0,0.0,27,0.00,,,0.00,Wunderground v.1.15,2013-02-11 02:15:00,
2013-02-10 19:20:00,44.9,12.9,29.97,WSW,257,0.0,0.0,27,0.00,,,0.00,Wunderground v.1.15,2013-02-11 02:20:00,
2013-02-10 19:25:00,44.6,12.6,29.97,WSW,256,0.0,0.0,27,0.00,,,0.00,Wunderground v.1.15,2013-02-11 02:25:00,
2013-02-10 19:30:00,44.4,12.5,29.97,WSW,257,0.0,0.0,27,0.00,,,0.00,Wunderground v.1.15,2013-02-11 02:30:00,
2013-02-10 19:35:00,44.1,13.0,29.97,WSW,257,0.0,0.0,28,0.00,,,0.00,Wunderground v.1.15,2013-02-11 02:35:00,
2013-02-10 19:40:00,43.8,12.8,29.97,WSW,257,0.0,0.0,28,0.00,,,0.00,Wunderground v.1.15,2013-02-11 02:40:00,
2013-02-10 19:45:00,43.5,12.5,29.97,WSW,257,0.0,0.0,28,0.00,,,0.00,Wunderground v.1.15,2013-02-11 02:45:00,
2013-02-10 19:50:00,43.3,13.1,29.98,WSW,256,0.0,0.0,29,0.00,,,0.00,Wunderground v.1.15,2013-02-11 02:50:00,
2013-02-10 19:55:00,42.9,12.0,29.98,WSW,257,0.0,0.0,28,0.00,,,0.00,Wunderground v.1.15,2013-02-11 02:55:00,
2013-02-10 20:05:00,42.4,12.3,29.95,WSW,257,0.0,0.0,29,0.00,,,0.00,Wunderground v.1.15,2013-02-11 03:05:00,
2013-02-10 20:15:00,42.0,12.0,29.96,WSW,256,0.0,0.0,29,0.00,,,0.00,Wunderground v.1.15,2013-02-11 03:15:00,
2013-02-10 20:20:00,41.8,12.6,29.96,WSW,257,0.0,0.0,30,0.00,,,0.00,Wunderground v.1.15,2013-02-11 03:20:00,
2013-02-10 20:25:00,41.5,12.3,29.96,WSW,257,0.0,0.0,30,0.00,,,0.00,Wunderground v.1.15,2013-02-11 03:25:00,
2013-02-10 20:30:00,41.3,12.1,29.96,WSW,257,0.0,0.0,30,0.00,,,0.00,Wunderground v.1.15,2013-02-11 03:30:00,
2013-02-10 20:35:00,40.8,11.7,29.97,WSW,257,0.0,0.0,30,0.00,,,0.00,Wunderground v.1.15,2013-02-11 03:35:00,
2013-02-10 20:40:00,40.1,11.1,29.98,WSW,257,0.0,0.0,30,0.00,,,0.00,Wunderground v.1.15,2013-02-11 03:40:00,
2013-02-10 20:50:00,39.1,10.2,29.98,WSW,256,0.0,0.0,30,0.00,,,0.00,Wunderground v.1.15,2013-02-11 03:50:00,
2013-02-10 20:55:00,38.8,10.7,29.98,WSW,256,0.0,0.0,31,0.00,,,0.00,Wunderground v.1.15,2013-02-11 03:55:00,
2013-02-10 21:00:00,38.5,10.4,29.98,WSW,256,0.0,0.0,31,0.00,,,0.00,Wunderground v.1.15,2013-02-11 04:00:00,
2013-02-10 21:10:00,38.3,10.3,29.97,SSE,153,0.0,0.0,31,0.00,,,0.00,Wunderground v.1.15,2013-02-11 04:10:00,
2013-02-10 21:15:00,38.1,10.1,29.97,SSE,153,0.0,0.0,31,0.00,,,0.00,Wunderground v.1.15,2013-02-11 04:15:00,
2013-02-10 21:25:00,37.8,10.5,29.97,SSE,152,0.0,0.0,32,0.00,,,0.00,Wunderground v.1.15,2013-02-11 04:25:00,
2013-02-10 21:30:00,37.6,10.4,29.97,SSE,153,0.0,0.0,32,0.00,,,0.00,Wunderground v.1.15,2013-02-11 04:30:00,
2013-02-10 21:35:00,37.5,10.3,29.97,SSE,152,0.0,0.0,32,0.00,,,0.00,Wunderground v.1.15,2013-02-11 04:35:00,
2013-02-10 21:40:00,37.3,10.1,29.98,SSE,153,0.0,0.0,32,0.00,,,0.00,Wunderground v.1.15,2013-02-11 04:40:00,
2013-02-10 21:45:00,37.2,10.0,29.98,SSE,153,0.0,0.0,32,0.00,,,0.00,Wunderground v.1.15,2013-02-11 04:45:00,
2013-02-10 21:50:00,37.0,9.8,29.99,SSE,152,0.0,0.0,32,0.00,,,0.00,Wunderground v.1.15,2013-02-11 04:50:00,
2013-02-10 22:00:00,36.6,10.2,29.99,SSE,153,0.0,0.0,33,0.00,,,0.00,Wunderground v.1.15,2013-02-11 05:00:00,
2013-02-10 22:05:00,36.4,10.0,29.95,SSE,152,0.0,0.0,33,0.00,,,0.00,Wunderground v.1.15,2013-02-11 05:05:00,
2013-02-10 22:15:00,36.2,9.8,29.97,SSE,152,0.0,0.0,33,0.00,,,0.00,Wunderground v.1.15,2013-02-11 05:15:00,
2013-02-10 22:20:00,36.1,10.4,29.97,SSE,153,0.0,0.0,34,0.00,,,0.00,Wunderground v.1.15,2013-02-11 05:20:00,
2013-02-10 22:25:00,36.0,10.3,29.97,SSE,152,0.0,0.0,34,0.00,,,0.00,Wunderground v.1.15,2013-02-11 05:25:00,
2013-02-10 22:35:00,35.7,10.0,29.97,SSE,153,0.0,0.0,34,0.00,,,0.00,Wunderground v.1.15,2013-02-11 05:35:00,
2013-02-10 22:40:00,35.5,9.9,29.97,SSE,152,0.0,0.0,34,0.00,,,0.00,Wunderground v.1.15,2013-02-11 05:40:00,
2013-02-10 22:45:00,35.3,9.7,29.96,SSE,153,0.0,0.0,34,0.00,,,0.00,Wunderground v.1.15,2013-02-11 05:45:00,
2013-02-10 22:50:00,35.2,9.6,29.96,SSE,152,0.0,0.0,34,0.00,,,0.00,Wunderground v.1.15,2013-02-11 05:50:00,
2013-02-10 22:55:00,35.0,10.1,29.97,SSE,153,0.0,0.0,35,0.00,,,0.00,Wunderground v.1.15,2013-02-11 05:55:00,
2013-02-10 23:05:00,34.7,9.8,29.96,SSE,153,0.0,0.0,35,0.00,,,0.00,Wunderground v.1.15,2013-02-11 06:05:00,
2013-02-10 23:15:00,34.4,10.2,29.96,SSE,153,0.0,0.0,36,0.00,,,0.00,Wunderground v.1.15,2013-02-11 06:15:00,
2013-02-10 23:20:00,34.4,10.2,29.97,SSE,152,0.0,0.0,36,0.00,,,0.00,Wunderground v.1.15,2013-02-11 06:20:00,
2013-02-10 23:25:00,34.1,9.9,29.97,SSE,153,0.0,0.0,36,0.00,,,0.00,Wunderground v.1.15,2013-02-11 06:25:00,
2013-02-10 23:30:00,33.9,10.3,29.97,SSE,152,0.0,0.0,37,0.00,,,0.00,Wunderground v.1.15,2013-02-11 06:30:00,
2013-02-10 23:40:00,33.8,10.2,29.97,SSE,153,0.0,0.0,37,0.00,,,0.00,Wunderground v.1.15,2013-02-11 06:40:00,
2013-02-10 23:45:00,33.7,10.1,29.97,SSE,152,0.0,0.0,37,0.00,,,0.00,Wunderground v.1.15,2013-02-11 06:45:00,
2013-02-10 23:50:00,33.6,10.1,29.97,SSE,153,0.0,0.0,37,0.00,,,0.00,Wunderground v.1.15,2013-02-11 06:50:00,
2013-02-10 23:55:00,33.5,10.0,29.97,SSE,152,0.0,0.0,37,0.00,,,0.00,Wunderground v.1.15,2013-02-11 06:55:00,